Time,TemperatureF,DewpointF,PressureIn,WindDirection,WindDirectionDegrees,WindSpeedMPH,WindSpeedGustMPH,Humidity,HourlyPrecipIn,Conditions,Clouds,dailyrainin,SoftwareType,DateUTC
2013-08-22 00:01:00,70.7,62.2,30.00,WSW,248,3.8,6.3,74,0.00,,,0.00,WUHU216HW,2013-08-22 04:01:00,
2013-08-22 00:06:00,70.5,62.0,30.00,West,270,3.1,5.4,74,0.00,,,0.00,WUHU216HW,2013-08-22 04:06:00,
2013-08-22 00:11:00,70.3,62.1,30.00,West,270,2.2,5.1,75,0.00,,,0.00,WUHU216HW,2013-08-22 04:11:00,
2013-08-22 00:16:00,70.1,61.9,30.00,West,270,1.8,3.6,75,0.00,,,0.00,WUHU216HW,2013-08-22 04:16:00,
2013-08-22 00:21:00,70.0,61.8,30.00,West,270,3.4,5.4,75,0.00,,,0.00,WUHU216HW,2013-08-22 04:21:00,
2013-08-22 00:26:00,70.1,61.9,30.00,WSW,248,3.1,5.4,75,0.00,,,0.00,WUHU216HW,2013-08-22 04:26:00,
2013-08-22 00:31:00,70.0,61.8,30.00,WSW,248,3.8,5.4,75,0.00,,,0.00,WUHU216HW,2013-08-22 04:31:00,
2013-08-22 00:36:00,70.0,61.8,30.00,WSW,248,3.6,4.9,75,0.00,,,0.00,WUHU216HW,2013-08-22 04:36:00,
2013-08-22 00:41:00,69.8,61.3,30.00,West,270,2.5,4.7,74,0.00,,,0.00,WUHU216HW,2013-08-22 04:41:00,
2013-08-22 00:46:00,69.4,60.9,30.00,West,270,2.5,3.6,74,0.00,,,0.00,WUHU216HW,2013-08-22 04:46:00,
2013-08-22 00:51:00,68.7,60.2,30.00,West,270,2.5,3.4,74,0.00,,,0.00,WUHU216HW,2013-08-22 04:51:00,
2013-08-22 00:56:00,68.2,60.5,30.00,WNW,293,2.2,3.8,76,0.00,,,0.00,WUHU216HW,2013-08-22 04:56:00,
2013-08-22 01:01:00,67.8,59.7,30.00,WNW,293,1.3,3.8,75,0.00,,,0.00,WUHU216HW,2013-08-22 05:01:00,
2013-08-22 01:06:00,67.6,59.5,30.00,North,0,0.4,3.1,75,0.00,,,0.00,WUHU216HW,2013-08-22 05:06:00,
2013-08-22 01:11:00,67.6,59.5,30.00,WNW,293,0.0,1.8,75,0.00,,,0.00,WUHU216HW,2013-08-22 05:11:00,
2013-08-22 01:16:00,67.6,59.5,30.00,WSW,248,0.4,1.8,75,0.00,,,0.00,WUHU216HW,2013-08-22 05:16:00,
2013-08-22 01:21:00,67.4,59.3,30.00,West,270,0.7,1.8,75,0.00,,,0.00,WUHU216HW,2013-08-22 05:21:00,
2013-08-22 01:26:00,67.4,59.7,30.00,West,270,1.8,2.5,76,0.00,,,0.00,WUHU216HW,2013-08-22 05:26:00,
2013-08-22 01:31:00,67.4,60.0,30.00,NW,315,1.1,3.1,77,0.00,,,0.00,WUHU216HW,2013-08-22 05:31:00,
2013-08-22 01:36:00,67.4,60.0,30.00,WNW,293,1.3,3.1,77,0.00,,,0.00,WUHU216HW,2013-08-22 05:36:00,
2013-08-22 01:41:00,67.3,59.9,30.00,WNW,293,2.2,2.9,77,0.00,,,0.00,WUHU216HW,2013-08-22 05:41:00,
2013-08-22 01:46:00,67.1,60.1,30.00,West,270,0.9,2.9,78,0.00,,,0.00,WUHU216HW,2013-08-22 05:46:00,
2013-08-22 01:51:00,67.1,60.1,30.00,West,270,1.1,2.5,78,0.00,,,0.00,WUHU216HW,2013-08-22 05:51:00,
2013-08-22 01:56:00,66.9,59.9,30.00,West,270,1.1,2.5,78,0.00,,,0.00,WUHU216HW,2013-08-22 05:56:00,
2013-08-22 02:01:00,66.9,60.3,30.00,West,270,2.5,2.9,79,0.00,,,0.00,WUHU216HW,2013-08-22 06:01:00,
2013-08-22 02:06:00,66.9,60.3,30.00,West,270,2.2,3.1,79,0.00,,,0.00,WUHU216HW,2013-08-22 06:06:00,
2013-08-22 02:11:00,66.7,60.1,30.00,WNW,293,1.6,3.1,79,0.00,,,0.00,WUHU216HW,2013-08-22 06:11:00,
2013-08-22 02:16:00,66.7,60.1,30.00,WNW,293,1.8,2.5,79,0.00,,,0.00,WUHU216HW,2013-08-22 06:16:00,
2013-08-22 02:21:00,66.5,60.2,30.00,West,270,2.2,3.1,80,0.00,,,0.00,WUHU216HW,2013-08-22 06:21:00,
2013-08-22 02:26:00,66.4,60.1,30.00,West,270,2.0,3.1,80,0.00,,,0.00,WUHU216HW,2013-08-22 06:26:00,
2013-08-22 02:31:00,66.4,60.1,30.00,West,270,2.7,3.4,80,0.00,,,0.00,WUHU216HW,2013-08-22 06:31:00,
2013-08-22 02:36:00,66.4,60.1,30.00,WNW,293,1.8,3.4,80,0.00,,,0.00,WUHU216HW,2013-08-22 06:36:00,
2013-08-22 02:41:00,66.5,60.2,30.01,SW,225,1.3,3.4,80,0.00,,,0.00,WUHU216HW,2013-08-22 06:41:00,
2013-08-22 02:46:00,66.7,60.4,30.01,West,270,3.8,5.4,80,0.00,,,0.00,WUHU216HW,2013-08-22 06:46:00,
2013-08-22 02:51:00,67.1,60.5,30.01,WSW,248,6.3,6.3,79,0.00,,,0.00,WUHU216HW,2013-08-22 06:51:00,
2013-08-22 02:56:00,67.4,60.4,30.00,West,270,3.6,6.3,78,0.00,,,0.00,WUHU216HW,2013-08-22 06:56:00,
2013-08-22 03:01:00,67.4,60.4,30.00,West,270,4.0,6.3,78,0.00,,,0.00,WUHU216HW,2013-08-22 07:01:00,
2013-08-22 03:06:00,67.4,60.4,30.00,West,270,5.4,5.4,78,0.00,,,0.00,WUHU216HW,2013-08-22 07:06:00,
2013-08-22 03:11:00,67.4,60.4,30.00,West,270,4.7,5.4,78,0.00,,,0.00,WUHU216HW,2013-08-22 07:11:00,
2013-08-22 03:16:00,67.4,60.4,30.00,SW,225,4.7,5.6,78,0.00,,,0.00,WUHU216HW,2013-08-22 07:16:00,
2013-08-22 03:21:00,67.6,60.6,30.00,WSW,248,3.1,6.3,78,0.00,,,0.00,WUHU216HW,2013-08-22 07:21:00,
2013-08-22 03:26:00,67.4,60.4,30.00,West,270,3.4,6.3,78,0.00,,,0.00,WUHU216HW,2013-08-22 07:26:00,
2013-08-22 03:31:00,67.3,60.3,30.00,WNW,293,3.4,4.7,78,0.00,,,0.00,WUHU216HW,2013-08-22 07:31:00,
2013-08-22 03:36:00,67.1,60.1,29.99,West,270,3.4,4.7,78,0.00,,,0.00,WUHU216HW,2013-08-22 07:36:00,
2013-08-22 03:41:00,66.9,60.3,29.99,West,270,3.4,3.6,79,0.00,,,0.00,WUHU216HW,2013-08-22 07:41:00,
2013-08-22 03:46:00,67.1,60.1,29.99,West,270,4.7,4.9,78,0.00,,,0.00,WUHU216HW,2013-08-22 07:46:00,
2013-08-22 03:51:00,67.4,60.0,29.99,West,270,4.7,5.4,77,0.00,,,0.00,WUHU216HW,2013-08-22 07:51:00,
2013-08-22 03:56:00,67.6,60.2,29.99,West,270,4.7,6.7,77,0.00,,,0.00,WUHU216HW,2013-08-22 07:56:00,
2013-08-22 04:01:00,67.8,60.4,29.99,WSW,248,5.8,7.4,77,0.00,,,0.00,WUHU216HW,2013-08-22 08:01:00,
2013-08-22 04:06:00,67.8,60.4,29.99,WSW,248,5.4,7.4,77,0.00,,,0.00,WUHU216HW,2013-08-22 08:06:00,
2013-08-22 04:11:00,67.8,60.1,29.99,WSW,248,4.3,7.2,76,0.00,,,0.00,WUHU216HW,2013-08-22 08:11:00,
2013-08-22 04:16:00,67.8,60.4,29.99,WSW,248,4.9,7.2,77,0.00,,,0.00,WUHU216HW,2013-08-22 08:16:00,
2013-08-22 04:21:00,67.8,60.4,29.99,West,270,4.0,6.5,77,0.00,,,0.00,WUHU216HW,2013-08-22 08:21:00,
2013-08-22 04:26:00,67.8,60.1,29.98,West,270,4.5,6.5,76,0.00,,,0.00,WUHU216HW,2013-08-22 08:26:00,
2013-08-22 04:31:00,68.0,60.3,29.98,WNW,293,5.6,6.9,76,0.00,,,0.00,WUHU216HW,2013-08-22 08:31:00,
2013-08-22 04:36:00,67.8,60.1,29.98,WSW,248,3.8,6.9,76,0.00,,,0.00,WUHU216HW,2013-08-22 08:36:00,
2013-08-22 04:41:00,67.8,60.4,29.98,WSW,248,5.4,6.5,77,0.00,,,0.00,WUHU216HW,2013-08-22 08:41:00,
2013-08-22 04:46:00,67.6,60.2,29.98,WSW,248,2.5,6.5,77,0.00,,,0.00,WUHU216HW,2013-08-22 08:46:00,
2013-08-22 04:51:00,67.4,60.0,29.98,WNW,293,2.0,5.4,77,0.00,,,0.00,WUHU216HW,2013-08-22 08:51:00,
2013-08-22 04:56:00,67.1,59.8,29.98,West,270,2.2,4.0,77,0.00,,,0.00,WUHU216HW,2013-08-22 08:56:00,
2013-08-22 05:01:00,66.7,59.7,29.98,WSW,248,1.6,4.0,78,0.00,,,0.00,WUHU216HW,2013-08-22 09:01:00,
2013-08-22 05:06:00,66.5,59.9,29.98,WNW,293,2.5,2.7,79,0.00,,,0.00,WUHU216HW,2013-08-22 09:06:00,
2013-08-22 05:11:00,66.4,59.8,29.98,West,270,1.3,2.5,79,0.00,,,0.00,WUHU216HW,2013-08-22 09:11:00,
2013-08-22 05:16:00,66.4,59.4,29.98,NW,315,0.0,2.5,78,0.00,,,0.00,WUHU216HW,2013-08-22 09:16:00,
2013-08-22 05:21:00,66.4,59.4,29.98,NW,315,0.0,1.8,78,0.00,,,0.00,WUHU216HW,2013-08-22 09:21:00,
2013-08-22 05:26:00,66.2,59.6,29.97,West,270,0.9,1.3,79,0.00,,,0.00,WUHU216HW,2013-08-22 09:26:00,
2013-08-22 05:31:00,66.2,59.6,29.97,West,270,0.7,2.0,79,0.00,,,0.00,WUHU216HW,2013-08-22 09:31:00,
2013-08-22 05:36:00,66.2,59.6,29.97,SW,225,1.1,2.0,79,0.00,,,0.00,WUHU216HW,2013-08-22 09:36:00,
2013-08-22 05:41:00,66.0,59.4,29.97,West,270,1.3,1.8,79,0.00,,,0.00,WUHU216HW,2013-08-22 09:41:00,
2013-08-22 05:46:00,66.0,59.7,29.97,WSW,248,1.6,1.8,80,0.00,,,0.00,WUHU216HW,2013-08-22 09:46:00,
2013-08-22 05:51:00,66.0,59.7,29.96,NW,315,0.7,1.8,80,0.00,,,0.00,WUHU216HW,2013-08-22 09:51:00,
2013-08-22 05:56:00,65.8,59.5,29.97,SW,225,0.7,1.6,80,0.00,,,0.00,WUHU216HW,2013-08-22 09:56:00,
2013-08-22 06:01:00,65.8,59.5,29.96,WNW,293,2.2,2.5,80,0.00,,,0.00,WUHU216HW,2013-08-22 10:01:00,
2013-08-22 06:06:00,65.6,59.7,29.97,WSW,248,2.2,2.5,81,0.00,,,0.00,WUHU216HW,2013-08-22 10:06:00,
2013-08-22 06:11:00,65.7,59.8,29.96,WSW,248,1.8,2.9,81,0.00,,,0.00,WUHU216HW,2013-08-22 10:11:00,
2013-08-22 06:16:00,65.6,60.0,29.97,West,270,1.6,3.4,82,0.00,,,0.00,WUHU216HW,2013-08-22 10:16:00,
2013-08-22 06:21:00,65.5,59.9,29.96,WSW,248,1.1,3.4,82,0.00,,,0.00,WUHU216HW,2013-08-22 10:21:00,
2013-08-22 06:26:00,65.7,60.1,29.96,WSW,248,3.1,4.5,82,0.00,,,0.00,WUHU216HW,2013-08-22 10:26:00,
2013-08-22 06:31:00,65.7,60.1,29.96,SW,225,2.0,4.5,82,0.00,,,0.00,WUHU216HW,2013-08-22 10:31:00,
2013-08-22 06:36:00,65.8,60.2,29.96,WSW,248,2.0,3.8,82,0.00,,,0.00,WUHU216HW,2013-08-22 10:36:00,
2013-08-22 06:41:00,65.9,60.3,29.96,West,270,2.9,3.4,82,0.00,,,0.00,WUHU216HW,2013-08-22 10:41:00,
2013-08-22 06:46:00,65.9,60.3,29.96,West,270,2.5,4.0,82,0.00,,,0.00,WUHU216HW,2013-08-22 10:46:00,
2013-08-22 06:50:00,66.0,60.4,29.96,West,270,3.6,4.0,82,0.00,,,0.00,WUHU216HW,2013-08-22 10:50:00,
2013-08-22 06:56:00,66.0,60.4,29.96,WSW,248,2.7,4.7,82,0.00,,,0.00,WUHU216HW,2013-08-22 10:56:00,
2013-08-22 07:01:00,66.2,60.6,29.97,West,270,2.9,4.7,82,0.00,,,0.00,WUHU216HW,2013-08-22 11:01:00,
2013-08-22 07:07:00,66.7,61.1,29.97,WSW,248,4.0,4.0,82,0.00,,,0.00,WUHU216HW,2013-08-22 11:07:00,
2013-08-22 07:13:00,66.9,61.3,29.97,WSW,248,2.9,4.5,82,0.00,,,0.00,WUHU216HW,2013-08-22 11:13:00,
2013-08-22 07:19:00,67.3,61.3,29.96,SW,225,2.9,4.9,81,0.00,,,0.00,WUHU216HW,2013-08-22 11:19:00,
2013-08-22 07:24:00,67.5,61.5,29.96,WSW,248,4.7,4.9,81,0.00,,,0.00,WUHU216HW,2013-08-22 11:24:00,
2013-08-22 07:30:00,68.0,61.7,29.96,WSW,248,1.8,4.7,80,0.00,,,0.00,WUHU216HW,2013-08-22 11:30:00,
2013-08-22 07:35:00,68.5,62.1,29.96,WSW,248,3.4,3.8,80,0.00,,,0.00,WUHU216HW,2013-08-22 11:35:00,
2013-08-22 07:41:00,68.9,62.2,29.96,West,270,2.5,4.0,79,0.00,,,0.00,WUHU216HW,2013-08-22 11:41:00,
2013-08-22 07:47:00,69.3,62.2,29.97,WSW,248,1.8,4.0,78,0.00,,,0.00,WUHU216HW,2013-08-22 11:47:00,
2013-08-22 07:53:00,69.9,62.5,29.96,West,270,2.0,4.0,77,0.00,,,0.00,WUHU216HW,2013-08-22 11:53:00,
2013-08-22 07:59:00,70.4,62.6,29.97,West,270,4.0,4.0,76,0.00,,,0.00,WUHU216HW,2013-08-22 11:59:00,
2013-08-22 08:05:00,71.2,63.4,29.96,WSW,248,2.5,4.0,76,0.00,,,0.00,WUHU216HW,2013-08-22 12:05:00,
2013-08-22 08:11:00,71.8,63.2,29.96,West,270,3.4,4.0,74,0.00,,,0.00,WUHU216HW,2013-08-22 12:11:00,
2013-08-22 08:17:00,72.3,63.7,29.96,WSW,248,2.5,4.0,74,0.00,,,0.00,WUHU216HW,2013-08-22 12:17:00,
2013-08-22 08:27:00,73.3,63.5,29.96,West,270,2.9,3.8,71,0.00,,,0.00,WUHU216HW,2013-08-22 12:27:00,
2013-08-22 08:32:00,73.5,63.7,29.95,West,270,2.5,6.5,71,0.00,,,0.00,WUHU216HW,2013-08-22 12:32:00,
2013-08-22 08:37:00,73.8,64.0,29.96,WNW,293,2.7,6.5,71,0.00,,,0.00,WUHU216HW,2013-08-22 12:37:00,
2013-08-22 08:42:00,74.1,63.5,29.95,West,270,3.4,4.9,69,0.00,,,0.00,WUHU216HW,2013-08-22 12:42:00,
2013-08-22 08:47:00,74.7,63.7,29.95,WSW,248,3.1,4.9,68,0.00,,,0.00,WUHU216HW,2013-08-22 12:47:00,
2013-08-22 08:52:00,75.1,63.6,29.95,WSW,248,5.1,5.1,67,0.00,,,0.00,WUHU216HW,2013-08-22 12:52:00,
2013-08-22 08:57:00,75.8,63.8,29.96,West,270,4.0,5.1,66,0.00,,,0.00,WUHU216HW,2013-08-22 12:57:00,
2013-08-22 09:00:00,76.2,64.2,29.96,West,270,6.3,6.3,66,0.00,,,0.00,WUHU216HW,2013-08-22 13:00:00,
2013-08-22 09:05:00,76.2,63.8,29.95,West,270,2.0,6.9,65,0.00,,,0.00,WUHU216HW,2013-08-22 13:05:00,
2013-08-22 09:10:00,76.4,63.1,29.95,WNW,293,5.8,8.7,63,0.00,,,0.00,WUHU216HW,2013-08-22 13:10:00,
2013-08-22 09:15:00,77.0,62.7,29.95,WSW,248,6.0,8.7,61,0.00,,,0.00,WUHU216HW,2013-08-22 13:15:00,
2013-08-22 09:20:00,77.4,62.6,29.95,West,270,4.7,7.6,60,0.00,,,0.00,WUHU216HW,2013-08-22 13:20:00,
2013-08-22 09:25:00,77.7,63.0,29.95,NW,315,2.9,7.6,60,0.00,,,0.00,WUHU216HW,2013-08-22 13:25:00,
2013-08-22 09:30:00,77.7,63.0,29.95,West,270,2.7,6.5,60,0.00,,,0.00,WUHU216HW,2013-08-22 13:30:00,
2013-08-22 09:35:00,77.8,63.5,29.95,WSW,248,4.5,6.5,61,0.00,,,0.00,WUHU216HW,2013-08-22 13:35:00,
2013-08-22 09:40:00,78.2,63.9,29.95,West,270,4.5,5.4,61,0.00,,,0.00,WUHU216HW,2013-08-22 13:40:00,
2013-08-22 09:45:00,78.2,63.4,29.95,NW,315,5.6,6.3,60,0.00,,,0.00,WUHU216HW,2013-08-22 13:45:00,
2013-08-22 09:50:00,78.6,63.8,29.95,West,270,3.4,6.3,60,0.00,,,0.00,WUHU216HW,2013-08-22 13:50:00,
2013-08-22 09:55:00,78.3,63.0,29.95,West,270,5.6,6.9,59,0.00,,,0.00,WUHU216HW,2013-08-22 13:55:00,
2013-08-22 10:00:00,78.5,63.7,29.95,WNW,293,5.4,6.9,60,0.00,,,0.00,WUHU216HW,2013-08-22 14:00:00,
2013-08-22 10:05:00,79.4,63.0,29.96,West,270,7.2,7.2,57,0.00,,,0.00,WUHU216HW,2013-08-22 14:05:00,
2013-08-22 10:10:00,79.4,63.1,29.95,WNW,293,6.3,8.3,57,0.00,,,0.00,WUHU216HW,2013-08-22 14:10:00,
2013-08-22 10:15:00,79.4,63.6,29.96,WNW,293,4.9,8.3,58,0.00,,,0.00,WUHU216HW,2013-08-22 14:15:00,
2013-08-22 10:20:00,79.5,63.6,29.96,West,270,7.6,7.6,58,0.00,,,0.00,WUHU216HW,2013-08-22 14:20:00,
2013-08-22 10:25:00,79.5,63.6,29.96,NW,315,4.9,7.6,58,0.00,,,0.00,WUHU216HW,2013-08-22 14:25:00,
2013-08-22 10:30:00,79.5,63.6,29.96,West,270,4.3,7.6,58,0.00,,,0.00,WUHU216HW,2013-08-22 14:30:00,
2013-08-22 10:35:00,79.8,62.9,29.96,WNW,293,6.0,9.2,56,0.00,,,0.00,WUHU216HW,2013-08-22 14:35:00,
2013-08-22 10:40:00,80.6,63.7,29.96,West,270,5.8,9.2,56,0.00,,,0.00,WUHU216HW,2013-08-22 14:40:00,
2013-08-22 10:45:00,80.7,63.3,29.95,West,270,6.9,7.8,55,0.00,,,0.00,WUHU216HW,2013-08-22 14:45:00,
2013-08-22 10:50:00,80.8,63.8,29.95,West,270,6.9,8.5,56,0.00,,,0.00,WUHU216HW,2013-08-22 14:50:00,
2013-08-22 10:55:00,81.2,63.7,29.95,WNW,293,4.5,8.5,55,0.00,,,0.00,WUHU216HW,2013-08-22 14:55:00,
2013-08-22 11:00:00,81.7,64.1,29.95,West,270,5.4,7.8,55,0.00,,,0.00,WUHU216HW,2013-08-22 15:00:00,
2013-08-22 11:05:00,82.1,63.4,29.95,West,270,4.3,7.2,53,0.00,,,0.00,WUHU216HW,2013-08-22 15:05:00,
2013-08-22 11:10:00,82.6,63.9,29.95,West,270,5.1,6.9,53,0.00,,,0.00,WUHU216HW,2013-08-22 15:10:00,
2013-08-22 11:15:00,83.2,64.5,29.95,West,270,4.0,6.3,53,0.00,,,0.00,WUHU216HW,2013-08-22 15:15:00,
2013-08-22 11:20:00,83.5,64.8,29.95,WNW,293,5.4,6.3,53,0.00,,,0.00,WUHU216HW,2013-08-22 15:20:00,
2013-08-22 11:25:00,83.5,63.7,29.94,West,270,5.6,6.9,51,0.00,,,0.00,WUHU216HW,2013-08-22 15:25:00,
2013-08-22 11:30:00,83.7,63.8,29.94,West,270,5.8,6.9,51,0.00,,,0.00,WUHU216HW,2013-08-22 15:30:00,
2013-08-22 11:35:00,84.2,64.8,29.94,West,270,6.0,7.2,52,0.00,,,0.00,WUHU216HW,2013-08-22 15:35:00,
2013-08-22 11:40:00,84.4,64.4,29.94,WSW,248,5.4,7.2,51,0.00,,,0.00,WUHU216HW,2013-08-22 15:40:00,
2013-08-22 11:45:00,84.4,64.4,29.93,WNW,293,4.3,7.6,51,0.00,,,0.00,WUHU216HW,2013-08-22 15:45:00,
2013-08-22 11:50:00,84.4,64.4,29.93,West,270,6.0,7.8,51,0.00,,,0.00,WUHU216HW,2013-08-22 15:50:00,
2013-08-22 11:55:00,84.7,64.1,29.93,WSW,248,4.3,7.8,50,0.00,,,0.00,WUHU216HW,2013-08-22 15:55:00,
2013-08-22 12:00:00,85.1,62.7,29.93,West,270,5.8,8.5,47,0.00,,,0.00,WUHU216HW,2013-08-22 16:00:00,
2013-08-22 12:05:00,85.1,62.7,29.93,SSW,203,4.3,8.5,47,0.00,,,0.00,WUHU216HW,2013-08-22 16:05:00,
2013-08-22 12:10:00,85.6,62.5,29.93,WSW,248,5.4,8.1,46,0.00,,,0.00,WUHU216HW,2013-08-22 16:10:00,
2013-08-22 12:15:00,85.8,64.6,29.92,WSW,248,4.9,8.1,49,0.00,,,0.00,WUHU216HW,2013-08-22 16:15:00,
2013-08-22 12:20:00,86.3,64.4,29.92,NNW,338,3.1,6.3,48,0.00,,,0.00,WUHU216HW,2013-08-22 16:20:00,
2013-08-22 12:25:00,86.5,63.3,29.92,West,270,3.8,7.8,46,0.00,,,0.00,WUHU216HW,2013-08-22 16:25:00,
2013-08-22 12:30:00,86.5,64.0,29.92,WSW,248,4.5,7.8,47,0.00,,,0.00,WUHU216HW,2013-08-22 16:30:00,
2013-08-22 12:35:00,86.9,64.3,29.92,West,270,2.5,6.3,47,0.00,,,0.00,WUHU216HW,2013-08-22 16:35:00,
2013-08-22 12:40:00,87.4,65.4,29.92,WSW,248,3.8,5.1,48,0.00,,,0.00,WUHU216HW,2013-08-22 16:40:00,
2013-08-22 12:45:00,87.8,65.2,29.91,SW,225,5.1,6.0,47,0.00,,,0.00,WUHU216HW,2013-08-22 16:45:00,
2013-08-22 12:50:00,88.3,64.3,29.91,South,180,5.1,6.0,45,0.00,,,0.00,WUHU216HW,2013-08-22 16:50:00,
2013-08-22 12:55:00,88.9,64.9,29.91,SSE,158,4.3,5.6,45,0.00,,,0.00,WUHU216HW,2013-08-22 16:55:00,
2013-08-22 13:00:00,88.7,65.3,29.90,South,180,2.0,5.6,46,0.00,,,0.00,WUHU216HW,2013-08-22 17:00:00,
2013-08-22 13:05:00,89.2,63.8,29.90,West,270,2.2,5.4,43,0.00,,,0.00,WUHU216HW,2013-08-22 17:05:00,
2013-08-22 13:10:00,88.7,63.3,29.90,West,270,3.4,6.5,43,0.00,,,0.00,WUHU216HW,2013-08-22 17:10:00,
2013-08-22 13:15:00,87.6,63.0,29.90,NW,315,5.1,9.2,44,0.00,,,0.00,WUHU216HW,2013-08-22 17:15:00,
2013-08-22 13:20:00,87.2,63.3,29.90,South,180,3.4,9.2,45,0.00,,,0.00,WUHU216HW,2013-08-22 17:20:00,
2013-08-22 13:25:00,87.4,64.1,29.90,South,180,1.3,6.3,46,0.00,,,0.00,WUHU216HW,2013-08-22 17:25:00,
2013-08-22 13:30:00,87.9,64.7,29.90,WSW,248,2.5,5.8,46,0.00,,,0.00,WUHU216HW,2013-08-22 17:30:00,
2013-08-22 13:35:00,88.0,64.1,29.89,SW,225,6.0,6.3,45,0.00,,,0.00,WUHU216HW,2013-08-22 17:35:00,
2013-08-22 13:40:00,87.9,64.0,29.90,WSW,248,4.0,6.3,45,0.00,,,0.00,WUHU216HW,2013-08-22 17:40:00,
2013-08-22 13:45:00,87.5,63.6,29.89,SW,225,5.4,8.1,45,0.00,,,0.00,WUHU216HW,2013-08-22 17:45:00,
2013-08-22 13:50:00,87.3,63.4,29.89,SW,225,3.4,8.1,45,0.00,,,0.00,WUHU216HW,2013-08-22 17:50:00,
2013-08-22 13:55:00,87.5,63.6,29.89,SE,135,2.5,6.5,45,0.00,,,0.00,WUHU216HW,2013-08-22 17:55:00,
2013-08-22 14:00:00,87.3,63.4,29.89,WNW,293,2.5,6.3,45,0.00,,,0.00,WUHU216HW,2013-08-22 18:00:00,
2013-08-22 14:05:00,87.1,63.9,29.89,WSW,248,3.8,5.4,46,0.00,,,0.00,WUHU216HW,2013-08-22 18:05:00,
2013-08-22 14:10:00,87.1,64.5,29.89,WSW,248,5.4,5.4,47,0.00,,,0.00,WUHU216HW,2013-08-22 18:10:00,
2013-08-22 14:15:00,87.8,64.6,29.88,South,180,3.4,5.8,46,0.00,,,0.00,WUHU216HW,2013-08-22 18:15:00,
2013-08-22 14:20:00,88.5,63.9,29.88,WSW,248,4.9,7.2,44,0.00,,,0.00,WUHU216HW,2013-08-22 18:20:00,
2013-08-22 14:25:00,89.2,63.1,29.87,WNW,293,7.6,7.6,42,0.00,,,0.00,WUHU216HW,2013-08-22 18:25:00,
2013-08-22 14:30:00,89.2,64.5,29.87,West,270,4.0,7.6,44,0.00,,,0.00,WUHU216HW,2013-08-22 18:30:00,
2013-08-22 14:35:00,89.7,64.2,29.87,SW,225,5.4,7.6,43,0.00,,,0.00,WUHU216HW,2013-08-22 18:35:00,
2013-08-22 14:40:00,89.6,64.8,29.87,SW,225,4.3,6.3,44,0.00,,,0.00,WUHU216HW,2013-08-22 18:40:00,
2013-08-22 14:45:00,88.9,64.3,29.86,SSW,203,4.0,5.4,44,0.00,,,0.00,WUHU216HW,2013-08-22 18:45:00,
2013-08-22 14:50:00,88.6,64.6,29.86,SSE,158,2.2,4.9,45,0.00,,,0.00,WUHU216HW,2013-08-22 18:50:00,
2013-08-22 14:55:00,88.4,63.8,29.86,SW,225,3.4,4.9,44,0.00,,,0.00,WUHU216HW,2013-08-22 18:55:00,
2013-08-22 15:00:00,88.0,64.0,29.85,SSE,158,2.9,5.4,45,0.00,,,0.00,WUHU216HW,2013-08-22 19:00:00,
2013-08-22 15:05:00,88.0,64.0,29.85,SSW,203,4.0,6.7,45,0.00,,,0.00,WUHU216HW,2013-08-22 19:05:00,
2013-08-22 15:10:00,87.7,63.8,29.85,ESE,113,4.7,6.7,45,0.00,,,0.00,WUHU216HW,2013-08-22 19:10:00,
2013-08-22 15:15:00,87.6,63.7,29.84,WSW,248,5.4,8.9,45,0.00,,,0.00,WUHU216HW,2013-08-22 19:15:00,
2013-08-22 15:20:00,87.6,64.3,29.84,SSW,203,5.4,8.9,46,0.00,,,0.00,WUHU216HW,2013-08-22 19:20:00,
2013-08-22 15:25:00,87.6,65.0,29.83,South,180,4.0,8.5,47,0.00,,,0.00,WUHU216HW,2013-08-22 19:25:00,
2013-08-22 15:30:00,87.1,63.9,29.83,WSW,248,3.6,8.5,46,0.00,,,0.00,WUHU216HW,2013-08-22 19:30:00,
2013-08-22 15:35:00,87.1,64.5,29.83,SSW,203,4.9,8.5,47,0.00,,,0.00,WUHU216HW,2013-08-22 19:35:00,
2013-08-22 15:40:00,87.5,64.9,29.83,WSW,248,4.9,7.6,47,0.00,,,0.00,WUHU216HW,2013-08-22 19:40:00,
2013-08-22 15:45:00,87.6,65.0,29.83,WSW,248,4.0,8.5,47,0.00,,,0.00,WUHU216HW,2013-08-22 19:45:00,
2013-08-22 15:50:00,87.7,65.1,29.83,SW,225,4.7,8.5,47,0.00,,,0.00,WUHU216HW,2013-08-22 19:50:00,
2013-08-22 15:55:00,87.7,65.1,29.83,West,270,4.7,10.1,47,0.00,,,0.00,WUHU216HW,2013-08-22 19:55:00,
2013-08-22 16:00:00,87.7,64.4,29.83,West,270,5.4,10.1,46,0.00,,,0.00,WUHU216HW,2013-08-22 20:00:00,
2013-08-22 16:05:00,87.9,65.2,29.83,South,180,6.0,6.7,47,0.00,,,0.00,WUHU216HW,2013-08-22 20:05:00,
2013-08-22 16:10:00,87.1,65.2,29.83,WSW,248,4.7,6.9,48,0.00,,,0.00,WUHU216HW,2013-08-22 20:10:00,
2013-08-22 16:15:00,86.4,65.7,29.83,WNW,293,2.2,6.9,50,0.00,,,0.00,WUHU216HW,2013-08-22 20:15:00,
2013-08-22 16:20:00,85.8,65.7,29.83,WSW,248,4.3,6.7,51,0.00,,,0.00,WUHU216HW,2013-08-22 20:20:00,
2013-08-22 16:25:00,85.7,66.3,29.82,SSW,203,4.0,6.5,52,0.00,,,0.00,WUHU216HW,2013-08-22 20:25:00,
2013-08-22 16:30:00,85.7,66.8,29.82,SW,225,4.7,5.8,53,0.00,,,0.00,WUHU216HW,2013-08-22 20:30:00,
2013-08-22 16:35:00,85.5,67.2,29.82,SSW,203,4.0,7.8,54,0.00,,,0.00,WUHU216HW,2013-08-22 20:35:00,
2013-08-22 16:40:00,85.4,67.6,29.82,WSW,248,4.5,7.8,55,0.00,,,0.00,WUHU216HW,2013-08-22 20:40:00,
2013-08-22 16:45:00,85.1,67.9,29.82,WSW,248,3.1,6.9,56,0.00,,,0.00,WUHU216HW,2013-08-22 20:45:00,
2013-08-22 16:50:00,84.9,67.7,29.82,WSW,248,5.8,6.9,56,0.00,,,0.00,WUHU216HW,2013-08-22 20:50:00,
2013-08-22 16:55:00,84.9,68.2,29.82,NW,315,6.9,6.9,57,0.00,,,0.00,WUHU216HW,2013-08-22 20:55:00,
2013-08-22 17:00:00,85.2,68.0,29.82,SE,135,2.9,6.9,56,0.00,,,0.00,WUHU216HW,2013-08-22 21:00:00,
2013-08-22 17:05:00,85.0,68.3,29.81,South,180,4.7,6.7,57,0.00,,,0.00,WUHU216HW,2013-08-22 21:05:00,
2013-08-22 17:10:00,84.6,67.9,29.81,SSW,203,3.8,6.7,57,0.00,,,0.00,WUHU216HW,2013-08-22 21:10:00,
2013-08-22 17:15:00,84.5,68.4,29.81,WSW,248,5.1,7.6,58,0.00,,,0.00,WUHU216HW,2013-08-22 21:15:00,
2013-08-22 17:20:00,84.5,68.4,29.81,SSW,203,6.0,7.8,58,0.00,,,0.00,WUHU216HW,2013-08-22 21:20:00,
2013-08-22 17:25:00,84.3,68.1,29.81,South,180,5.8,7.8,58,0.00,,,0.00,WUHU216HW,2013-08-22 21:25:00,
2013-08-22 17:30:00,84.1,68.5,29.81,WSW,248,3.4,8.1,59,0.00,,,0.00,WUHU216HW,2013-08-22 21:30:00,
2013-08-22 17:35:00,83.9,68.3,29.80,SW,225,4.3,8.1,59,0.00,,,0.00,WUHU216HW,2013-08-22 21:35:00,
2013-08-22 17:40:00,83.9,68.3,29.80,WSW,248,8.1,8.9,59,0.00,,,0.00,WUHU216HW,2013-08-22 21:40:00,
2013-08-22 17:45:00,83.6,68.0,29.80,WNW,293,4.5,8.9,59,0.00,,,0.00,WUHU216HW,2013-08-22 21:45:00,
2013-08-22 17:50:00,83.4,68.3,29.80,South,180,3.1,6.9,60,0.00,,,0.00,WUHU216HW,2013-08-22 21:50:00,
2013-08-22 17:55:00,83.1,68.0,29.80,SSW,203,4.0,7.4,60,0.00,,,0.00,WUHU216HW,2013-08-22 21:55:00,
2013-08-22 18:00:00,82.6,68.1,29.80,WSW,248,4.0,7.4,61,0.00,,,0.00,WUHU216HW,2013-08-22 22:00:00,
2013-08-22 18:05:00,82.1,67.6,29.80,SSW,203,5.4,7.4,61,0.00,,,0.00,WUHU216HW,2013-08-22 22:05:00,
2013-08-22 18:10:00,81.9,67.8,29.80,South,180,4.9,6.9,62,0.00,,,0.00,WUHU216HW,2013-08-22 22:10:00,
2013-08-22 18:15:00,81.6,67.6,29.81,SSW,203,4.5,6.3,62,0.00,,,0.00,WUHU216HW,2013-08-22 22:15:00,
2013-08-22 18:20:00,80.9,67.4,29.81,WSW,248,6.0,8.5,63,0.00,,,0.00,WUHU216HW,2013-08-22 22:20:00,
2013-08-22 18:25:00,80.6,67.1,29.81,WSW,248,4.3,8.5,63,0.00,,,0.00,WUHU216HW,2013-08-22 22:25:00,
2013-08-22 18:30:00,80.2,67.2,29.80,SW,225,3.8,8.7,64,0.00,,,0.00,WUHU216HW,2013-08-22 22:30:00,
2013-08-22 18:35:00,80.1,67.0,29.80,WSW,248,3.6,8.7,64,0.00,,,0.00,WUHU216HW,2013-08-22 22:35:00,
2013-08-22 18:40:00,79.8,67.3,29.80,South,180,4.5,6.5,65,0.00,,,0.00,WUHU216HW,2013-08-22 22:40:00,
2013-08-22 18:45:00,79.6,67.5,29.80,West,270,5.6,6.5,66,0.00,,,0.00,WUHU216HW,2013-08-22 22:45:00,
2013-08-22 18:50:00,79.6,67.5,29.80,South,180,4.3,5.8,66,0.00,,,0.00,WUHU216HW,2013-08-22 22:50:00,
2013-08-22 18:55:00,79.3,67.2,29.80,WNW,293,2.0,5.8,66,0.00,,,0.00,WUHU216HW,2013-08-22 22:55:00,
2013-08-22 19:00:00,79.3,67.2,29.80,SSW,203,5.8,7.2,66,0.00,,,0.00,WUHU216HW,2013-08-22 23:00:00,
2013-08-22 19:05:00,78.8,66.7,29.80,WSW,248,5.1,7.2,66,0.00,,,0.00,WUHU216HW,2013-08-22 23:05:00,
2013-08-22 19:10:00,78.6,66.5,29.80,WNW,293,1.1,7.2,66,0.00,,,0.00,WUHU216HW,2013-08-22 23:10:00,
2013-08-22 19:15:00,78.2,66.6,29.80,WSW,248,6.9,6.9,67,0.00,,,0.00,WUHU216HW,2013-08-22 23:15:00,
2013-08-22 19:20:00,77.9,66.7,29.80,West,270,1.8,6.9,68,0.00,,,0.00,WUHU216HW,2013-08-22 23:20:00,
2013-08-22 19:25:00,77.5,66.7,29.81,West,270,5.6,6.9,69,0.00,,,0.00,WUHU216HW,2013-08-22 23:25:00,
2013-08-22 19:30:00,77.3,66.6,29.80,WSW,248,4.9,6.9,69,0.00,,,0.00,WUHU216HW,2013-08-22 23:30:00,
2013-08-22 19:35:00,77.2,66.5,29.80,SW,225,4.3,6.9,69,0.00,,,0.00,WUHU216HW,2013-08-22 23:35:00,
2013-08-22 19:40:00,77.0,66.7,29.80,SW,225,2.2,4.9,70,0.00,,,0.00,WUHU216HW,2013-08-22 23:40:00,
2013-08-22 19:45:00,76.8,66.1,29.81,SSW,203,4.0,4.0,69,0.00,,,0.00,WUHU216HW,2013-08-22 23:45:00,
2013-08-22 19:50:00,76.6,66.3,29.81,SW,225,1.8,5.1,70,0.00,,,0.00,WUHU216HW,2013-08-22 23:50:00,
2013-08-22 19:55:00,76.4,66.5,29.81,SW,225,3.6,5.4,71,0.00,,,0.00,WUHU216HW,2013-08-22 23:55:00,
2013-08-22 20:00:00,76.1,66.2,29.80,SSE,158,3.1,5.6,71,0.00,,,0.00,WUHU216HW,2013-08-23 00:00:00,
2013-08-22 20:05:00,75.9,66.0,29.81,WSW,248,2.5,5.6,71,0.00,,,0.00,WUHU216HW,2013-08-23 00:05:00,
2013-08-22 20:10:00,75.7,66.6,29.80,WSW,248,4.7,5.4,73,0.00,,,0.00,WUHU216HW,2013-08-23 00:10:00,
2013-08-22 20:15:00,75.5,66.4,29.81,SW,225,4.0,6.9,73,0.00,,,0.00,WUHU216HW,2013-08-23 00:15:00,
2013-08-22 20:20:00,75.4,66.3,29.81,West,270,3.4,6.9,73,0.00,,,0.00,WUHU216HW,2013-08-23 00:20:00,
2013-08-22 20:25:00,75.4,66.7,29.81,SW,225,2.7,6.0,74,0.00,,,0.00,WUHU216HW,2013-08-23 00:25:00,
2013-08-22 20:30:00,75.2,66.5,29.80,WNW,293,3.4,7.2,74,0.00,,,0.00,WUHU216HW,2013-08-23 00:30:00,
2013-08-22 20:35:00,75.0,66.3,29.81,SW,225,2.9,7.2,74,0.00,,,0.00,WUHU216HW,2013-08-23 00:35:00,
2013-08-22 20:40:00,75.0,66.3,29.81,WSW,248,2.5,5.6,74,0.00,,,0.00,WUHU216HW,2013-08-23 00:40:00,
2013-08-22 20:45:00,74.8,66.5,29.81,WNW,293,4.3,5.6,75,0.00,,,0.00,WUHU216HW,2013-08-23 00:45:00,
2013-08-22 20:50:00,74.6,66.3,29.81,South,180,3.6,6.0,75,0.00,,,0.00,WUHU216HW,2013-08-23 00:50:00,
2013-08-22 20:55:00,74.5,66.2,29.81,South,180,1.8,6.0,75,0.00,,,0.00,WUHU216HW,2013-08-23 00:55:00,
2013-08-22 21:00:00,74.3,66.0,29.81,SSW,203,4.5,6.3,75,0.00,,,0.00,WUHU216HW,2013-08-23 01:00:00,
2013-08-22 21:05:00,74.1,65.8,29.81,SE,135,4.0,6.3,75,0.00,,,0.00,WUHU216HW,2013-08-23 01:05:00,
2013-08-22 21:10:00,73.9,65.6,29.81,NW,315,2.5,7.8,75,0.00,,,0.00,WUHU216HW,2013-08-23 01:10:00,
2013-08-22 21:15:00,73.9,66.0,29.81,WNW,293,3.4,7.8,76,0.00,,,0.00,WUHU216HW,2013-08-23 01:15:00,
2013-08-22 21:20:00,73.9,65.6,29.81,West,270,4.7,5.8,75,0.00,,,0.00,WUHU216HW,2013-08-23 01:20:00,
2013-08-22 21:25:00,73.6,65.3,29.81,West,270,4.3,5.4,75,0.00,,,0.00,WUHU216HW,2013-08-23 01:25:00,
2013-08-22 21:30:00,73.6,65.7,29.80,SW,225,5.1,5.4,76,0.00,,,0.00,WUHU216HW,2013-08-23 01:30:00,
2013-08-22 21:35:00,73.4,65.9,29.80,SSW,203,5.6,5.8,77,0.00,,,0.00,WUHU216HW,2013-08-23 01:35:00,
2013-08-22 21:40:00,73.2,65.7,29.81,SSW,203,3.6,5.8,77,0.00,,,0.00,WUHU216HW,2013-08-23 01:40:00,
2013-08-22 21:45:00,73.0,65.8,29.80,SSW,203,3.6,6.5,78,0.00,,,0.00,WUHU216HW,2013-08-23 01:45:00,
2013-08-22 21:50:00,72.8,65.3,29.81,WSW,248,2.7,6.5,77,0.00,,,0.00,WUHU216HW,2013-08-23 01:50:00,
2013-08-22 21:55:00,72.8,65.7,29.81,SSW,203,3.4,5.4,78,0.00,,,0.00,WUHU216HW,2013-08-23 01:55:00,
2013-08-22 22:00:00,72.8,65.7,29.80,NNW,338,4.3,5.6,78,0.00,,,0.00,WUHU216HW,2013-08-23 02:00:00,
2013-08-22 22:05:00,72.7,65.9,29.80,ESE,113,5.6,5.6,79,0.00,,,0.00,WUHU216HW,2013-08-23 02:05:00,
2013-08-22 22:10:00,72.5,65.4,29.80,SSE,158,3.8,5.6,78,0.00,,,0.00,WUHU216HW,2013-08-23 02:10:00,
2013-08-22 22:15:00,72.5,66.1,29.80,West,270,6.0,6.0,80,0.00,,,0.00,WUHU216HW,2013-08-23 02:15:00,
2013-08-22 22:20:00,72.3,65.9,29.80,SW,225,3.1,6.3,80,0.00,,,0.00,WUHU216HW,2013-08-23 02:20:00,
2013-08-22 22:25:00,72.1,66.0,29.80,West,270,6.3,8.9,81,0.00,,,0.00,WUHU216HW,2013-08-23 02:25:00,
2013-08-22 22:30:00,72.1,66.0,29.80,WNW,293,8.1,8.9,81,0.00,,,0.00,WUHU216HW,2013-08-23 02:30:00,
2013-08-22 22:35:00,72.1,66.0,29.80,South,180,5.6,8.1,81,0.00,,,0.00,WUHU216HW,2013-08-23 02:35:00,
2013-08-22 22:40:00,71.9,65.8,29.79,NNW,338,4.5,8.3,81,0.00,,,0.00,WUHU216HW,2013-08-23 02:40:00,
2013-08-22 22:45:00,71.9,65.8,29.80,South,180,5.4,8.9,81,0.00,,,0.00,WUHU216HW,2013-08-23 02:45:00,
2013-08-22 22:50:00,71.8,66.1,29.80,South,180,5.4,8.9,82,0.00,,,0.00,WUHU216HW,2013-08-23 02:50:00,
2013-08-22 22:55:00,71.8,66.1,29.79,SW,225,5.6,6.9,82,0.00,,,0.00,WUHU216HW,2013-08-23 02:55:00,
2013-08-22 23:00:00,71.8,66.1,29.79,SW,225,4.0,7.6,82,0.00,,,0.00,WUHU216HW,2013-08-23 03:00:00,
2013-08-22 23:05:00,71.8,66.1,29.79,SW,225,5.1,7.6,82,0.00,,,0.00,WUHU216HW,2013-08-23 03:05:00,
2013-08-22 23:10:00,71.6,66.2,29.79,SSW,203,8.1,8.1,83,0.00,,,0.00,WUHU216HW,2013-08-23 03:10:00,
2013-08-22 23:15:00,71.6,66.2,29.79,SW,225,5.8,8.1,83,0.00,,,0.00,WUHU216HW,2013-08-23 03:15:00,
2013-08-22 23:20:00,71.4,66.0,29.79,NW,315,9.2,9.2,83,0.00,,,0.00,WUHU216HW,2013-08-23 03:20:00,
2013-08-22 23:25:00,71.2,65.8,29.79,West,270,6.3,9.4,83,0.00,,,0.00,WUHU216HW,2013-08-23 03:25:00,
2013-08-22 23:30:00,71.0,66.0,29.80,SW,225,8.7,9.4,84,0.00,,,0.00,WUHU216HW,2013-08-23 03:30:00,
2013-08-22 23:35:00,70.9,65.5,29.80,SW,225,5.6,9.2,83,0.00,,,0.00,WUHU216HW,2013-08-23 03:35:00,
2013-08-22 23:40:00,70.7,65.7,29.80,West,270,8.1,8.7,84,0.00,,,0.00,WUHU216HW,2013-08-23 03:40:00,
2013-08-22 23:45:00,70.9,66.2,29.79,West,270,6.7,8.5,85,0.00,,,0.00,WUHU216HW,2013-08-23 03:45:00,
2013-08-22 23:50:00,70.9,65.9,29.79,West,270,3.6,9.2,84,0.00,,,0.00,WUHU216HW,2013-08-23 03:50:00,
2013-08-22 23:55:00,70.9,65.9,29.80,West,270,6.3,9.2,84,0.00,,,0.00,WUHU216HW,2013-08-23 03:55:00,